Wolf Point, MT

3:30 PM MDT on April 28, 2017 (GMT -0600)
Clayton

Weather History for KOLF - February, 2014

Change the Weather History Date:

Thursday, February 13, 2014

  Actual Average Record
Temperature  
Mean Temperature 11 °F -  
Max Temperature 18 °F 29 °F 50 °F (2005)
Min Temperature 3 °F 5 °F -18 °F (2001)
Degree Days  
Heating Degree Days 54    
Cooling Degree Days 0    
Moisture  
Dew Point 6 °F    
Average Humidity 77    
Maximum Humidity 87    
Minimum Humidity 61    
Precipitation  
Precipitation 0.08 in 0.01 in 0.21 in (2016)
Month to date precipitation 0.08 0.07  
Year to date precipitation 0.14 0.38  
Sea Level Pressure  
Sea Level Pressure 29.75 in    
Wind  
Wind Speed 8 mph (ENE)    
Max Wind Speed 13 mph    
Max Gust Speed -    
Visibility 6 miles    
Events Fog , Snow    
T = Trace of Precipitation, MM = Missing Value Source: NWS Daily Summary

Daily Weather History Graph

Daily Weather History Graph

Search for Another Location

Airport or City:

Trip Planner

Search our weather history database for the weather conditions in past years. The results will help you decide how hot, cold, wet, or windy it might be!

Date:

Astronomy

Feb. 13, 2014 Rise Set
Actual Time 7:12 AM MST 5:21 PM MST
Civil Twilight 6:39 AM MST 5:53 PM MST
Nautical Twilight 6:03 AM MST 6:30 PM MST
Astronomical Twilight 5:27 AM MST 7:06 PM MST
Moon 4:32 PM MST (2/13) 6:07 AM MST (2/13)
Length of Visible Light 11h 13m
Length of Day
10h 09m
Waxing Gibbous, 99% of the Moon is Illuminated
Feb 13
Waxing Gibbous
Feb 14
Full
Feb 22
Last Quarter
Mar 1
New
Mar 8
First Quarter

Hourly Weather History & Observations

Time (MST) Temp. Windchill Dew Point Humidity Pressure Visibility Wind Dir Wind Speed Gust Speed Precip Events Conditions
12:53 AM 16.0 °F 4.4 °F 7.0 °F 68% 29.80 in 10.0 mi NW 9.2 mph - N/A   Mostly Cloudy
1:53 AM 10.9 °F 2.9 °F 3.9 °F 73% 29.86 in 10.0 mi Variable 4.6 mph - N/A   Partly Cloudy
2:53 AM 8.1 °F -3.2 °F 1.0 °F 73% 29.88 in 10.0 mi NNW 6.9 mph - N/A   Mostly Cloudy
3:53 AM 7.0 °F -7.5 °F -0.9 °F 70% 29.88 in 10.0 mi NNE 10.4 mph - N/A   Scattered Clouds
4:53 AM 6.1 °F - -0.9 °F 73% 29.91 in 10.0 mi Calm Calm - N/A   Partly Cloudy
5:53 AM 7.0 °F 0.1 °F -2.0 °F 67% 29.89 in 10.0 mi NNE 3.5 mph - N/A   Partly Cloudy
6:53 AM 7.0 °F -4.5 °F -0.9 °F 70% 29.85 in 10.0 mi East 6.9 mph - N/A   Overcast
7:53 AM 7.0 °F -6.6 °F -2.0 °F 67% 29.88 in 10.0 mi East 9.2 mph - N/A   Overcast
8:53 AM 8.1 °F -4.3 °F -2.0 °F 64% 29.85 in 10.0 mi East 8.1 mph - N/A   Mostly Cloudy
9:53 AM 10.9 °F -0.8 °F -0.0 °F 61% 29.83 in 10.0 mi East 8.1 mph - N/A   Clear
10:53 AM 12.9 °F -0.2 °F 1.9 °F 62% 29.81 in 10.0 mi ENE 10.4 mph - N/A   Overcast
11:53 AM 14.0 °F 5.1 °F 3.0 °F 62% 29.79 in 10.0 mi East 5.8 mph - N/A   Overcast
12:30 PM 15.1 °F 2.5 °F 3.9 °F 61% 29.64 in 1.8 mi ENE 10.4 mph - 0.00 in Snow Light Snow
12:33 PM 15.1 °F 1.8 °F 5.0 °F 64% 29.64 in 0.8 mi ENE 11.5 mph - 0.00 in Snow Light Snow
12:53 PM 14.0 °F 0.5 °F 7.0 °F 74% 29.74 in 0.2 mi ENE 11.5 mph - 0.00 in Snow Heavy Snow
1:10 PM 12.9 °F -0.9 °F 8.1 °F 81% 29.62 in 0.2 mi East 11.5 mph - 0.01 in Snow Heavy Snow
1:53 PM 14.0 °F -0.2 °F 10.0 °F 84% 29.72 in 0.2 mi ENE 12.7 mph - 0.04 in Fog , Snow Snow
2:00 PM 15.1 °F 1.1 °F 10.0 °F 80% 29.61 in 0.2 mi ENE 12.7 mph - 0.00 in Snow Heavy Snow
2:25 PM 15.1 °F 1.1 °F 10.9 °F 84% 29.59 in 0.2 mi East 12.7 mph - 0.02 in Fog , Snow Snow
2:40 PM 15.1 °F 1.8 °F 10.9 °F 84% 29.60 in 0.8 mi ENE 11.5 mph - 0.03 in Snow Light Snow
2:44 PM 15.1 °F 1.8 °F 10.9 °F 84% 29.59 in 1.2 mi East 11.5 mph - 0.03 in Snow Light Snow
2:53 PM 16.0 °F 3.6 °F 10.9 °F 81% 29.72 in 3.0 mi East 10.4 mph - 0.03 in Snow Light Snow
2:57 PM 15.1 °F 2.5 °F 10.9 °F 84% 29.60 in 1.8 mi East 10.4 mph - 0.00 in Snow Light Snow
3:05 PM 15.1 °F 1.8 °F 10.9 °F 84% 29.60 in 0.2 mi ENE 11.5 mph - 0.01 in Fog , Snow Snow
3:14 PM 16.0 °F 2.3 °F 10.9 °F 81% 29.61 in 0.8 mi NE 12.7 mph - 0.01 in Snow Light Snow
3:17 PM 15.1 °F 1.1 °F 10.9 °F 84% 29.61 in 1.2 mi NE 12.7 mph - 0.01 in Snow Light Snow
3:26 PM 16.0 °F 3.6 °F 10.9 °F 81% 29.61 in 3.0 mi ENE 10.4 mph - 0.01 in Snow Light Snow
3:38 PM 16.0 °F 2.3 °F 12.0 °F 84% 29.60 in 5.0 mi ENE 12.7 mph - 0.01 in   Overcast
3:53 PM 16.0 °F 3.6 °F 10.9 °F 81% 29.73 in 8.0 mi East 10.4 mph - 0.01 in   Overcast
4:53 PM 15.1 °F 1.1 °F 10.0 °F 80% 29.75 in 9.0 mi ENE 12.7 mph - N/A   Overcast
5:08 PM 15.1 °F 1.8 °F 10.0 °F 80% 29.63 in 7.0 mi ENE 11.5 mph - N/A   Overcast
5:53 PM 10.9 °F -0.8 °F 7.0 °F 84% 29.78 in 9.0 mi ENE 8.1 mph - N/A   Partly Cloudy
6:53 PM 10.0 °F 1.8 °F 5.0 °F 80% 29.80 in 10.0 mi ENE 4.6 mph - N/A   Partly Cloudy
7:53 PM 8.1 °F -0.5 °F 5.0 °F 87% 29.82 in 10.0 mi East 4.6 mph - N/A   Clear
8:53 PM 5.0 °F -2.1 °F -0.0 °F 80% 29.86 in 8.0 mi East 3.5 mph - N/A   Mostly Cloudy
9:53 PM 3.0 °F - -0.0 °F 87% 29.88 in 10.0 mi Calm Calm - N/A   Overcast
10:13 PM 5.0 °F - 1.0 °F 84% 29.76 in 10.0 mi Calm Calm - N/A   Overcast
10:53 PM 7.0 °F 0.1 °F 3.0 °F 84% 29.89 in 10.0 mi ENE 3.5 mph - N/A   Overcast
11:36 PM 7.0 °F - 3.9 °F 87% 29.78 in 10.0 mi Calm Calm - N/A   Overcast
11:53 PM 9.0 °F - 3.9 °F 80% 29.93 in 10.0 mi Calm Calm - N/A   Overcast